Location: Kott?ru
(16.6209°N, 80.6208°E)
Time: 13:57:15
(UTC+00:00)

ISS - Visible Passes

Search period start: 30 January 2023 00:00
Search period end: 09 February 2023 00:00
Orbit: 413 x 419 km, 51.6° (Epoch: 30 January)

Date Brightness Start Highest point End Pass type
(mag) Time Alt. Az. Time Alt. Az. Time Alt. Az.
04 Feb -1.7 13:45:54 10° N 13:47:00 17° N 13:47:00 17° N visible
05 Feb -1.7 12:58:21 10° NNE 12:59:50 12° NE 13:01:18 10° ENE visible
05 Feb -0.9 14:33:37 10° WNW 14:34:48 18° W 14:34:48 18° W visible
06 Feb -3.5 13:44:24 10° NW 13:47:42 66° SW 13:50:04 18° SSE visible
07 Feb -3.5 12:55:38 10° NNW 12:58:53 48° NE 13:02:07 10° SE visible
08 Feb -0.6 13:44:33 10° W 13:46:26 14° SW 13:48:19 10° SSW visible
